FW0896 Weather Reports


time (UTC)temp
C
wind
direction
speed
KPH
gust
KPH
rain 1hr
cm
rain 24hr
cm
rain mn
cm
humidity
%
barometer
mb
20260906150039 20 141 3.2 6.4 0.00 0.00 0.00 94 1018.0
20260906144538 20 143 1.6 4.8 0.00 0.00 0.00 94 1018.1
20260906143038 20 141 1.6 4.8 0.00 0.00 0.00 95 1018.1
20260906141538 20 127 1.6 6.4 0.00 0.00 0.00 95 1018.0
20260906140034 20 162 1.6 6.4 0.00 0.00 0.00 95 1017.9
20260906134533 20 153 3.2 6.4 0.00 0.00 0.00 96 1017.8
20260906133033 20 170 1.6 6.4 0.00 0.00 0.00 96 1017.8
20260906131541 20 149 3.2 4.8 0.00 0.00 0.00 96 1018.0
20260906130034 20 170 1.6 6.4 0.00 0.00 0.00 96 1017.8
20260906124529 20 161 1.6 6.4 0.00 0.00 0.00 96 1017.5
20260906123028 20 130 1.6 6.4 0.00 0.00 0.00 95 1017.4
20260906121527 20 139 3.2 4.8 0.00 0.00 0.00 95 1017.2
20260906120025 20 162 1.6 4.8 0.00 0.00 0.00 95 1017.1
20260906114524 19 169 1.6 4.8 0.00 0.00 0.00 95 1017.0
20260906113023 19 169 1.6 4.8 0.00 0.00 0.00 95 1016.9
20260906111520 20 176 1.6 4.8 0.00 0.00 0.00 95 1016.7
20260906110019 20 150 3.2 4.8 0.00 0.00 0.00 95 1016.6
20260906104532 20 148 1.6 4.8 0.00 0.00 0.00 94 1016.7
20260906103017 20 143 1.6 4.8 0.00 0.00 0.00 94 1016.8
20260906101515 20 165 3.2 4.8 0.00 0.00 0.00 94 1016.8
20260906100014 20 151 1.6 6.4 0.00 0.00 0.00 94 1016.6
20260906094532 20 148 1.6 4.8 0.00 0.00 0.00 94 1016.6
20260906093016 20 120 1.6 4.8 0.00 0.00 0.00 94 1016.4
20260906091511 20 169 1.6 4.8 0.00 0.00 0.00 94 1016.2
20260906090008 20 181 0.0 4.8 0.00 0.00 0.00 94 1016.2
20260906084507 20 162 1.6 4.8 0.00 0.00 0.00 95 1016.1
20260906083014 20 165 3.2 6.4 0.00 0.00 0.00 95 1015.8
20260906081504 20 158 1.6 4.8 0.00 0.00 0.00 95 1015.7
20260906080004 20 172 1.6 4.8 0.00 0.00 0.00 95 1015.8
20260906074503 20 134 1.6 6.4 0.00 0.00 0.00 95 1015.8
20260906073001 20 121 4.8 11.3 0.00 0.00 0.00 95 1015.9
20260906071603 20 120 3.2 6.4 0.00 0.00 0.00 95 1016.1
20260906070100 20 117 1.6 4.8 0.00 0.00 0.00 95 1016.2
20260906064559 21 123 1.6 6.4 0.00 0.00 0.00 96 1016.4
20260906063058 20 119 1.6 4.8 0.00 0.00 0.00 96 1016.2
20260906061559 20 103 1.6 4.8 0.00 0.00 0.00 95 1016.3
20260906060056 20 109 4.8 6.4 0.00 0.00 0.00 96 1016.3
20260906054553 20 84 3.2 9.7 0.00 0.00 0.00 95 1016.3
20260906053054 21 70 3.2 12.9 0.00 0.00 0.00 95 1016.3
20260906051557 21 100 4.8 11.3 0.00 0.00 0.00 95 1016.1
20260906050047 21 86 4.8 11.3 0.00 0.00 0.00 95 1016.1
20260906044546 21 98 4.8 8.0 0.00 0.00 0.00 95 1015.8
20260906043046 21 89 6.4 14.5 0.00 0.00 0.00 95 1016.1
20260906041552 21 90 3.2 8.0 0.00 0.00 0.00 95 1016.1
20260906040045 21 93 1.6 6.4 0.00 0.00 0.00 94 1015.9
20260906034548 21 86 3.2 9.7 0.00 0.00 0.00 94 1016.1
20260906033045 21 89 3.2 6.4 0.00 0.00 0.00 94 1016.2
20260906031543 21 89 1.6 4.8 0.00 0.00 0.00 94 1016.3
20260906030043 22 88 1.6 4.8 0.00 0.00 0.00 93 1016.3
20260906024558 22 115 0.0 4.8 0.00 0.00 0.00 93 1015.9
20260906023042 22 115 1.6 4.8 0.00 0.00 0.00 92 1016.0
20260906021541 22 115 0.0 0.0 0.00 0.00 0.00 92 1015.6
20260906020046 22 115 0.0 0.0 0.00 0.00 0.00 92 1015.9
20260906014551 22 115 0.0 0.0 0.00 0.00 0.00 91 1015.6
20260906013043 22 115 0.0 0.0 0.00 0.00 0.00 91 1015.4
20260906011541 22 115 0.0 0.0 0.00 0.00 0.00 90 1015.3
20260906010037 23 115 0.0 0.0 0.00 0.00 0.00 89 1015.1
20260906004541 23 114 0.0 0.0 0.00 0.00 0.00 88 1015.0
20260906003047 23 113 0.0 1.6 0.00 0.00 0.00 88 1014.9
20260906001534 23 113 0.0 3.2 0.00 0.00 0.00 87 1014.7
20260906000033 23 110 0.0 3.2 0.00 0.00 0.00 87 1014.7
20260905234533 23 111 0.0 3.2 0.00 0.00 0.00 87 1014.6
20260905233033 23 104 3.2 8.0 0.00 0.00 0.00 87 1014.5
20260905231538 24 85 3.2 8.0 0.00 0.00 0.00 86 1014.4
20260905230032 24 86 0.0 6.4 0.00 0.00 0.00 86 1014.4
20260905224534 25 105 0.0 8.0 0.00 0.00 0.00 85 1014.5
20260905223031 25 98 3.2 9.7 0.00 0.00 0.00 84 1014.0
20260905221530 25 86 4.8 9.7 0.00 0.00 0.00 86 1013.9
20260905220030 26 97 1.6 9.7 0.00 0.00 0.00 86 1013.7
20260905214530 26 102 4.8 8.0 0.00 0.00 0.00 86 1013.7
20260905213039 26 98 3.2 8.0 0.00 0.00 0.00 85 1014.1
20260905211533 26 70 4.8 8.0 0.00 0.00 0.00 83 1014.2
20260905210027 27 65 0.0 6.4 0.00 0.00 0.00 83 1014.3
20260905204527 27 98 3.2 8.0 0.00 0.00 0.00 83 1014.5
20260905203023 26 104 0.0 11.3 0.00 0.00 0.00 86 1014.4
20260905201520 25 97 6.4 14.5 0.00 0.00 0.00 87 1013.5
20260905200018 25 98 4.8 12.9 0.00 0.00 0.00 90 1013.4
20260905194514 25 80 4.8 17.7 0.00 0.00 0.00 91 1013.3
20260905193013 24 70 8.0 19.3 0.00 0.00 0.00 91 1013.1
20260905191512 24 63 8.0 14.5 0.00 0.00 0.00 91 1013.4
20260905190012 24 82 1.6 14.5 0.00 0.00 0.00 90 1014.6
20260905184511 24 32 6.4 12.9 0.00 0.00 0.00 91 1014.3
20260905183008 23 86 6.4 14.5 0.00 0.00 0.00 92 1014.1
20260905181509 23 79 4.8 16.1 0.00 0.00 0.00 92 1014.4
20260905180007 23 74 6.4 14.5 0.00 0.00 0.00 92 1014.6
20260905174508 23 84 4.8 9.7 0.00 0.00 0.00 94 1015.2
20260905173005 23 89 4.8 9.7 0.00 0.00 0.00 95 1015.8
20260905171512 22 67 4.8 9.7 0.00 0.00 0.00 96 1015.9
20260905170005 22 63 3.2 11.3 0.00 0.00 0.00 97 1016.2
20260905164506 22 36 3.2 4.8 0.00 0.00 0.00 97 1016.6
20260905163003 22 264 0.0 3.2 0.00 0.00 0.00 97 1016.8
20260905161503 22 255 0.0 0.0 0.00 0.00 0.00 97 1016.8
20260905160005 22 253 3.2 8.0 0.00 0.00 0.00 96 1017.1
20260905154604 22 75 0.0 0.0 0.00 0.00 0.00 97 1016.3
20260905153100 21 89 0.0 0.0 0.00 0.00 0.00 97 1016.3
20260905151558 21 89 0.0 0.0 0.00 0.00 0.00 97 1016.2